Regional Weather Roundup
Issued by NWS

Home | Current Version | Previous Version | Graphics & Text | Print | Product List | Glossary On
Versions: 1 2 3 4 5 6 7 8 9 10 11 12 13 14 15 16 17 18 19 20 21 22 23 24 25 26 27 28 29 30 31 32 33 34 35 36 37 38 39 40 41 42 43 44 45 46 47 48 49 50
000
ASUS45 KBOU 291507
RWRCO

WEATHER ROUNDUP FOR COLORADO
NATIONAL WEATHER SERVICE DENVER/BOULDER CO
900 AM MDT FRI MAY 29 2015

NOTE: "FAIR" INDICATES FEW OR NO CLOUDS BELOW 12000 FEET WITH NO
SIGNIFICANT WEATHER AND/OR OBSTRUCTIONS TO VISIBILITY.

COZ001>005-013-030-031-291600-
...NORTHWEST COLORADO...

CITY           SKY/WX    TMP DP  RH WIND       PRES   REMARKS
CRAIG          MOSUNNY   49  41  74 CALM      30.30R
HAYDEN         PTSUNNY   46  37  71 CALM      30.30R
MEEKER         SUNNY     47  38  71 CALM      30.30R
MOUNT WERNER   NOT AVBL
STEAMBOAT SPGS CLOUDY    43  38  84 SE5       30.31R
WALDEN         PTSUNNY   41  32  70 CALM      30.32R
$$

COZ006>008-011-291600-
...WEST CENTRAL VALLEYS...

CITY           SKY/WX    TMP DP  RH WIND       PRES   REMARKS
GRAND JUNCTION SUNNY     57  43  59 SE7       30.23R
MONTROSE       SUNNY     53  42  66 NW3       30.28R
EAGLE          MOSUNNY   57  46  67 CALM      30.32F
RIFLE            N/A     51  41  68 CALM      30.27S
DELTA          SUNNY     57  42  57 CALM      30.26R
NUCLA          SUNNY     54  43  66 CALM      30.29R
$$

COZ017>023-064>068-291600-
...SOUTHWEST COLORADO...

CITY           SKY/WX    TMP DP  RH WIND       PRES   REMARKS
DURANGO        SUNNY     55  37  50 CALM      30.24R
CORTEZ         SUNNY     58  39  49 CALM      30.22S
PAGOSA SPRINGS SUNNY     56  31  39 CALM      30.28R
TELLURIDE      SUNNY     47  31  53 CALM      30.37R
WOLF CREEK PAS NOT AVBL
$$

COZ009-010-012-014-032>034-037-058>063-291600-
...CENTRAL COLORADO...

CITY           SKY/WX    TMP DP  RH WIND       PRES   REMARKS
ASPEN          MOSUNNY   47  36  65 VRB3      30.31S
BUENA VISTA    SUNNY     52  28  39 NW6       30.30S
COPPER MTN     CLOUDY    34  28  80 W5G16     30.43R WCI  30
BERTHOUD PASS  HAZE      23  18  80 NW12G20   30.44R VSB<1/4 WCI  12
COTTONWOOD PAS MOSUNNY   46  27  46 CALM      30.37R
GUNNISON       CLOUDY    45  34  65 CALM      30.36S
KREMMLING      CLOUDY    43  34  70 CALM      30.34R
LEADVILLE      PTSUNNY   40  27  59 NW7       30.35R
SALIDA         SUNNY     52  34  50 N5        30.36S
SUNLIGHT       SUNNY     37  30  75 CALM        N/A
WILKERSON PASS SUNNY     36  23  60 W3        30.43R
$$

COZ069>075-291600-
...SAN LUIS VALLEY/SANGRE DE CRISTO MOUNTAINS...

CITY           SKY/WX    TMP DP  RH WIND       PRES   REMARKS
ALAMOSA        SUNNY     50  35  56 CALM      30.28S
LA VETA PASS   SUNNY    N/A N/A N/A MISG      30.37R
SAGUACHE       SUNNY     50  34  53 NW13      30.31R
$$

COZ035-036-038>040-291600-
...NORTHERN COLORADO FRONT RANGE...

CITY           SKY/WX    TMP DP  RH WIND       PRES   REMARKS
DENVER INTL AP PTSUNNY   58  44  60 VRB5      30.21R
DMNS CITY PARK   N/A     60  43  53 E2        30.20S
AURORA         MOSUNNY   56  41  58 N2        30.22S
FRONT RANGE AP MOSUNNY   57  48  72 NW12      30.22R
ERIE MUNI ARPT MOSUNNY   59  45  58 CALM      30.20S
BOULDER MUN AP SUNNY     59  46  63 NE3       30.20S
CENTENNIAL     MOSUNNY   55  44  66 CALM      30.22R
BROOMFIELD     MOSUNNY   57  46  67 SE6       30.22S
FORT COLLINS   PTSUNNY   57  45  62 CALM      30.22R
LONGMONT       PTSUNNY   64  47  53 CALM      30.21S
$$

COZ041-046-047-076>085-087-088-291600-
...PIKES PEAK/PALMER DIVIDE AND SOUTHERN FOOTHILLS...

CITY           SKY/WX    TMP DP  RH WIND       PRES   REMARKS
COLO. SPRINGS  MOSUNNY   60  40  47 N9        30.22R
A. F. ACADEMY  SUNNY     55  42  61 N14       30.22R
ELLICOTT       SUNNY    N/A N/A N/A N13       30.20R
FALCON         MOSUNNY   55  39  55 N52G104   30.25R
FORT CARSON    SUNNY     60  42  52 N8        30.20R
LIMON          SUNNY     56  50  80 N17       30.19R
MONUMENT HILL  SUNNY     52  41  66 MISG      30.26R
TRINIDAD       SUNNY     60  47  61 N6        30.18S
$$

COZ042>045-048>051-090-091-291600-
...NORTHEAST COLORADO...

CITY           SKY/WX    TMP DP  RH WIND       PRES   REMARKS
GREELEY ARPT   MOSUNNY   57  46  67 N10       30.20R
AKRON          MOSUNNY   59  52  77 N17       30.15S
BURLINGTON     SUNNY     61  50  67 N18       30.13R
WRAY           SUNNY     63  53  70 NW13      30.11S
STERLING       LGT RAIN  55  52  88 N16       30.14S
HOLYOKE        SUNNY     63  54  72 N16       30.12R
FORT MORGAN    PTSUNNY   57  48  72 N17       30.18R
$$

COZ086-089-092>099-291600-
...SOUTHEAST COLORADO...

CITY           SKY/WX    TMP DP  RH WIND       PRES   REMARKS
PUEBLO         SUNNY     60  50  69 VRB3      30.15S
LA JUNTA       PTSUNNY   64  50  60 N9        30.14R
LAMAR          MOSUNNY   64  53  67 N8        30.10R
SPRINGFIELD      N/A     63  49  60 N15       30.11R
$$


USA.gov is the U.S. government's official web portal to all federal, state and local government web resources and services.